15 daagse weersverwachting Southampton (GB)

  • Overzicht
  • Per uur
  • 15 dagen
  • Extra
  • Vergelijk
  • Kaarten
  • Dagkaart
  • Meer »
  • Info
  • Statistieken
  • Directe link
    Temp 6h Neerslag Wind  
 04:53     21:22    Daglengte: 16:29 Morgen
01:00
14°
 
4
07:00
14°
 
5
13:00
17°
0.3 mm
6
19:00
16°
 
4
 04:53     21:22    Daglengte: 16:29 Dinsdag 18 Jun
01:00
12°
 
2
07:00
12°
 
1
13:00
17°
1.9 mm
2
19:00
19°
2.2 mm
2
 04:53     21:22    Daglengte: 16:29 Woensdag 19 Jun
01:00
15°
11.5 mm
2
07:00
15°
16.5 mm
2
13:00
18°
22.5 mm
3
19:00
16°
16.5 mm
4
Locatie info
Region: England
Latitude: 50.9100°N
Longitude: -1.4071°E
19 masl
Postcode: SO15 2
Temp/Neerslag /Baro Onweer/Dauwpunt
    Temp Baro 1h Neerslag Dauwpunt Wind UV Bewolking  
 04:53     21:22    Daglengte: 16:29 Morgen
00:00
14°
1018.4 hPa   11.7°
4
Windvlaag: 3.7 km/h
44%
01:00
14°
1018.3 hPa   11.7°
4
Windvlaag: 3.7 km/h
33%
02:00
13°
1018.2 hPa   11.7°
4
Windvlaag: 3.6 km/h
24%
03:00
13°
1017.9 hPa   11.7°
4
Windvlaag: 3.3 km/h
23%
04:00
13°
1017.8 hPa
12%
11.7°
4
Windvlaag: 3 km/h
22%
05:00
13°
1017.8 hPa
12%
11.6°
4
Windvlaag: 3 km/h
26%
06:00
13°
1018.1 hPa
18%
11.8°
4
Windvlaag: 2.8 km/h
43%
07:00
14°
1018.1 hPa
13%
12.0°
5
Windvlaag: 3.1 km/h
39%
08:00
15°
1018.2 hPa 0.1 mm
14%
12.0°
5
Windvlaag: 3.6 km/h
63%
09:00
15°
1018.2 hPa 0.1 mm
21%
12.0°
5
Windvlaag: 3.7 km/h
54%
10:00
16°
1018.2 hPa
17%
11.9°
5
Windvlaag: 3.6 km/h
48%
11:00
16°
1018.3 hPa
16%
11.8°
5
Windvlaag: 3.6 km/h
60%
12:00
17°
1018.2 hPa
18%
11.8°
6
Windvlaag: 3.9 km/h
60%
13:00
17°
1018.0 hPa
15%
11.8°
6
Windvlaag: 3.9 km/h
28%
14:00
18°
1017.8 hPa
15%
11.6°
6
Windvlaag: 4.1 km/h
20%
15:00
18°
1017.6 hPa
14%
11.9°
5
Windvlaag: 4.1 km/h
34%
16:00
17°
1017.4 hPa
15%
11.7°
5
Windvlaag: 4.1 km/h
33%
17:00
17°
1017.2 hPa
14%
11.6°
5
Windvlaag: 3.9 km/h
42%
18:00
17°
1017.0 hPa
14%
11.5°
5
Windvlaag: 3.6 km/h
30%
19:00
16°
1016.8 hPa
14%
11.5°
4
Windvlaag: 3.5 km/h
17%
20:00
15°
1016.6 hPa
14%
11.6°
3
Windvlaag: 3.1 km/h
22%
21:00
14°
1016.7 hPa
14%
11.6°
3
Windvlaag: 2.8 km/h
35%
22:00
13°
1017.0 hPa
14%
11.5°
2
Windvlaag: 2.5 km/h
16%
23:00
12°
1017.1 hPa
14%
11.4°
2
Windvlaag: 2.1 km/h
27%
 04:53     21:22    Daglengte: 16:29 Dinsdag 18 Jun
00:00
12°
1016.9 hPa
14%
11.5°
2
Windvlaag: 1.5 km/h
64%
01:00
12°
1016.7 hPa
14%
11.4°
2
Windvlaag: 1 km/h
69%
02:00
12°
1016.6 hPa
14%
11.4°
2
Windvlaag: 0.4 km/h
84%
03:00
12°
1016.3 hPa
14%
11.5°
1
Windvlaag: 0.1 km/h
86%
04:00
12°
1015.8 hPa
14%
11.5°
1
Windvlaag: -0.7 km/h
75%
05:00
12°
1015.7 hPa
14%
11.6°
1
Windvlaag: -0.9 km/h
87%
06:00
12°
1015.5 hPa
14%
11.7°
1
Windvlaag: 0.4 km/h
84%
07:00
12°
1015.4 hPa
14%
11.9°
1
Windvlaag: 0.7 km/h
87%
08:00
13°
1015.5 hPa
14%
11.5°
1
Windvlaag: 1 km/h
83%
09:00
15°
1015.3 hPa
14%
11.7°
1
Windvlaag: 1.4 km/h
82%
10:00
16°
1015.1 hPa
14%
11.9°
1
Windvlaag: 0.5 km/h
71%
11:00
17°
1014.8 hPa
14%
12.4°
2
Windvlaag: 0.7 km/h
74%
12:00
17°
1014.3 hPa
14%
12.7°
2
Windvlaag: 1.6 km/h
83%
13:00
17°
1013.8 hPa 1.9 mm
14%
13.0°
2
Windvlaag: 1.6 km/h
86%
14:00
18°
1013.3 hPa
18%
13.2°
2
Windvlaag: 1.9 km/h
64%
15:00
19°
1013.0 hPa
69%
13.5°
2
Windvlaag: 1.1 km/h
82%
16:00
19°
1012.3 hPa
82%
13.4°
2
Windvlaag: 0.8 km/h
82%
17:00
19°
1011.5 hPa
69%
13.7°
2
Windvlaag: 0.5 km/h
85%
18:00
19°
1011.3 hPa
21%
14.1°
2
Windvlaag: 0.3 km/h
79%
19:00
19°
1011.0 hPa 2.2 mm
17%
14.3°
2
Windvlaag: 0.7 km/h
77%
20:00
18°
1010.5 hPa 2.1 mm
42%
14.1°
2
Windvlaag: -0.3 km/h
85%
21:00
17°
1010.2 hPa
68%
14.5°
2
Windvlaag: -0.3 km/h
87%
22:00
16°
1010.1 hPa 3.2 mm
95%
14.8°
3
Windvlaag: -1.3 km/h
97%
23:00
16°
1009.4 hPa
100%
14.8°
3
Windvlaag: -1.5 km/h
97%
 04:53     21:22    Daglengte: 16:29 Woensdag 19 Jun
00:00
16°
1008.9 hPa 2.7 mm
100%
14.8°
2
Windvlaag: -1.1 km/h
96%
01:00
15°
1008.3 hPa 3.5 mm
100%
14.7°
2
Windvlaag: -0.9 km/h
87%
02:00
15°
1007.7 hPa 3.4 mm
100%
14.7°
2
Windvlaag: -1.6 km/h
97% warningclass
03:00
15°
1006.7 hPa
100%
14.4°
2
Windvlaag: -2.4 km/h
93%
04:00
15°
1005.9 hPa 4.2 mm
100%
14.3°
2
Windvlaag: -2.7 km/h
98%
05:00
15°
1005.4 hPa 2.6 mm
100%
14.1°
3
Windvlaag: -2.7 km/h
98%
06:00
15°
1005.2 hPa 3.7 mm
100%
14.0°
2
Windvlaag: -2.7 km/h
100%
07:00
15°
1005.3 hPa 2.6 mm
94%
14.0°
2
Windvlaag: -3.4 km/h
100%
08:00
15°
1005.7 hPa 5.7 mm
25%
14.0°
3
Windvlaag: 2 km/h
95%
09:00
16°
1005.9 hPa 5.8 mm
29%
14.2°
3
Windvlaag: 2.2 km/h
90%
10:00
16°
1006.2 hPa 5.5 mm
89%
13.6°
3
Windvlaag: 1.6 km/h
81%
11:00
17°
1006.6 hPa
35%
13.9°
3
Windvlaag: 1.1 km/h
80%
12:00
18°
1006.9 hPa 5.4 mm
98%
13.8°
3
Windvlaag: 1.2 km/h
93%
13:00
18°
1007.2 hPa
100%
14.6°
3
Windvlaag: 1.1 km/h
97%
14:00
18°
1007.6 hPa 3.6 mm
99%
15.0°
3
Windvlaag: 1 km/h
93%
15:00
18°
1007.8 hPa 4.2 mm
99%
14.3°
3
Windvlaag: 1 km/h
75%
16:00
17°
1008.2 hPa 4.9 mm
100%
14.2°
4
Windvlaag: 1 km/h
95%
17:00
16°
1008.4 hPa 3.8 mm
100%
13.9°
4
Windvlaag: 0.8 km/h
92%
18:00
16°
1008.6 hPa
100%
13.3°
4
Windvlaag: 0.8 km/h
89%
19:00
16°
1008.9 hPa
84%
12.5°
4
Windvlaag: 0.8 km/h
45%
20:00
16°
1009.4 hPa
32%
12.0°
3
Windvlaag: 6.1 km/h
35%
21:00
15°
1009.9 hPa
21%
11.6°
3
Windvlaag: 8.4 km/h
24%
22:00
14°
1010.4 hPa
21%
10.8°
3
Windvlaag: 9.7 km/h
19%
23:00
13°
1010.8 hPa
21%
10.0°
3
Windvlaag: 9.7 km/h
19%
Temp/Neerslag /Baro Onweer/Dauwpunt
    Temp Baro Neerslag Dauwpunt Wind Bewolking  
 04:53     21:22    Daglengte: 16:29 Morgen
01:00
14°
1018.3 hPa   11.7°
4
33%
04:00
13°
1017.8 hPa   11.7°
4
22%
07:00
14°
1018.1 hPa   12.0°
5
39%
10:00
16°
1018.2 hPa 0.3 mm 11.9°
5
48%
13:00
17°
1018.0 hPa   11.8°
6
28%
16:00
17°
1017.4 hPa   11.7°
5
33%
19:00
16°
1016.8 hPa   11.5°
4
17%
22:00
13°
1017.0 hPa   11.5°
2
16%
 04:53     21:22    Daglengte: 16:29 Dinsdag 18 Jun
01:00
12°
1016.7 hPa   11.4°
2
69%
04:00
12°
1015.8 hPa   11.5°
1
75%
07:00
12°
1015.4 hPa   11.9°
1
87%
10:00
16°
1015.1 hPa   11.9°
1
71%
13:00
17°
1013.8 hPa 1.9 mm 13.0°
2
86%
16:00
19°
1012.3 hPa   13.4°
2
82%
19:00
19°
1011.0 hPa 2.2 mm 14.3°
2
77%
22:00
16°
1010.1 hPa 5.3 mm 14.8°
3
97%
 04:53     21:22    Daglengte: 16:29 Woensdag 19 Jun
01:00
15°
1008.3 hPa 6.2 mm 14.7°
2
87%
04:00
15°
1005.9 hPa 7.6 mm 14.3°
2
98%
07:00
15°
1005.3 hPa 8.8 mm 14.0°
2
100%
10:00
16°
1006.2 hPa 17.0 mm 13.6°
3
81%
13:00
18°
1007.2 hPa 5.4 mm 14.6°
3
97%
16:00
17°
1008.2 hPa 12.7 mm 14.2°
4
95%
19:00
16°
1008.9 hPa 3.8 mm 12.5°
4
45%
22:00
14°
1010.4 hPa   10.8°
3
19%
 04:53     21:23    Daglengte: 16:30 Donderdag 20 Jun
01:00
11°
1011.6 hPa   8.7°
3
2%
04:00
11°
1012.8 hPa 9.9 mm 9.0°
3
38%
07:00
11°
1013.2 hPa 9.9 mm 9.3°
3
57%
10:00
14°
1013.9 hPa 9.9 mm 9.7°
4
57%
13:00
17°
1014.6 hPa 10.1 mm 9.7°
6
57%
16:00
16°
1014.8 hPa 10.8 mm 10.3°
5
62%
19:00
15°
1014.9 hPa 11.1 mm 10.7°
4
68%
22:00
13°
1016.1 hPa 11.2 mm 10.2°
3
42%
 04:53     21:23    Daglengte: 16:30 Vrijdag 21 Jun
01:00
10°
1017.1 hPa 11.3 mm 9.6°
2
17%
04:00
10°
1017.8 hPa 11.4 mm 9.1°
2
8%
07:00
11°
1018.6 hPa 11.5 mm 8.9°
2
0%
10:00
14°
1019.0 hPa 11.5 mm 9.2°
3
37%
13:00
17°
1019.4 hPa 11.6 mm 8.9°
4
73%
16:00
17°
1019.4 hPa 11.7 mm 8.9°
3
62%
19:00
16°
1019.4 hPa 12.0 mm 9.3°
3
52%
22:00
13°
1020.2 hPa 12.1 mm 8.5°
2
30%
 04:53     21:23    Daglengte: 16:30 Zaterdag 22 Jun
01:00
Voelt als: 8.3°
1020.9 hPa 12.1 mm 7.3°
2
9%
04:00
10°
Voelt als: 9.5°
1020.7 hPa 12.1 mm 7.8°
2
8%
07:00
11°
1020.6 hPa 12.1 mm 8.6°
1
7%
10:00
15°
1020.4 hPa 12.2 mm 9.2°
2
39%
13:00
18°
1020.2 hPa 12.5 mm 8.8°
4
71%
16:00
17°
1019.4 hPa 12.8 mm 8.4°
3
58%
19:00
16°
1018.6 hPa 12.9 mm 7.9°
3
44%
22:00
14°
1018.5 hPa 12.9 mm 8.1°
3
68%
 04:54     21:23    Daglengte: 16:29 Zondag 23 Jun
01:00
12°
1018.2 hPa 12.9 mm 7.8°
4
92%
04:00
13°
1017.2 hPa 12.9 mm 9.1°
4
92%
07:00
14°
1016.4 hPa 13.0 mm 10.4°
4
92%
10:00
16°
1016.0 hPa 13.2 mm 11.8°
5
92%
13:00
18°
1015.7 hPa 13.3 mm 13.1°
5
92%
16:00
18°
1015.2 hPa 14.8 mm 13.3°
5
84%
19:00
18°
1014.7 hPa 15.9 mm 13.4°
4
77%
22:00
16°
1015.1 hPa   13.9°
3
76%
 04:54     21:23    Daglengte: 16:29 Maandag 24 Jun
01:00
15°
1015.4 hPa 32.9 mm 14.3°
1
75%
07:00
15°
1015.4 hPa 36.2 mm 13.8°
1
67%
13:00
21°
1015.1 hPa 51.5 mm 13.5°
1
42%
19:00
19°
1014.7 hPa 61.1 mm 14.1°
3
14%
 04:54     21:23    Daglengte: 16:29 Dinsdag 25 Jun
01:00
14°
1016.2 hPa 70.8 mm 13.8°
4
34%
07:00
13°
1018.1 hPa 86.0 mm 12.4°
4
92%
13:00
14°
1020.4 hPa 100.9 mm 12.2°
5
91%
19:00
15°
1021.4 hPa 107.5 mm 10.3°
6
87%
 04:55     21:23    Daglengte: 16:28 Woensdag 26 Jun
01:00
11°
1024.0 hPa 108.6 mm 7.7°
4
26%
07:00
11°
1024.0 hPa 108.6 mm 8.4°
4
63%
13:00
15°
1024.3 hPa 108.7 mm 8.9°
6
91%
19:00
19°
1021.3 hPa 0.7 mm 12.5°
0
43%
 04:55     21:23    Daglengte: 16:28 Donderdag 27 Jun
01:00
14°
1020.8 hPa 0.5 mm 11.6°
1
44%
07:00
14°
1019.3 hPa 0.5 mm 11.3°
1
46%
13:00
19°
1018.5 hPa 0.8 mm 11.9°
2
52%
19:00
18°
1016.8 hPa 0.2 mm 13.0°
2
53%
 04:56     21:23    Daglengte: 16:27 Vrijdag 28 Jun
01:00
13°
1016.6 hPa 0.5 mm 11.1°
1
44%
07:00
14°
1015.7 hPa 0.5 mm 11.6°
2
41%
13:00
19°
1016.0 hPa 0.7 mm 12.4°
2
48%
19:00
19°
1015.5 hPa 0.8 mm 13.1°
2
56%
 04:56     21:23    Daglengte: 16:27 Zaterdag 29 Jun
01:00
13°
1016.2 hPa 0.2 mm 11.6°
2
35%
07:00
13°
1016.0 hPa 0.2 mm 11.2°
1
33%
13:00
19°
1016.2 hPa 0.3 mm 11.8°
2
40%
19:00
18°
1015.5 hPa 0.5 mm 12.2°
2
46%
 04:57     21:23    Daglengte: 16:26 Zondag 30 Jun
01:00
13°
1016.0 hPa 0.5 mm 11.1°
2
39%
07:00
13°
1015.8 hPa 0.2 mm 10.9°
2
31%
13:00
18°
1016.0 hPa 0.3 mm 10.9°
2
42%
19:00
18°
1015.5 hPa 0.4 mm 12.0°
2
47%
 04:58     21:22    Daglengte: 16:24 Maandag 01 Jul
01:00
13°
1015.8 hPa 0.4 mm 11.2°
1
38%
07:00
14°
1015.8 hPa 0.1 mm 11.3°
1
29%
13:00
19°
1016.2 hPa 0.3 mm 11.3°
3
43%
19:00
18°
1015.6 hPa 0.3 mm 11.8°
2
50%
  CAPE Lifted Index Hail Supercell Tornado SRH 3km CL BTM PRES CL TOP PRES Swiss DWD icon SMHI TS
 04:53     21:22    Daglengte: 16:29 Morgen
00:00 0 J/kg 5.4 K 0 % 0 % 0 % 0 m²/s² 0 0 7.77 2
01:00 0 J/kg 6.1 K 0 % 0 % 0 % 0 m²/s² 0 0 8.71 2
02:00 0 J/kg 6.5 K 0 % 0 % 0 % 0 m²/s² 0 0 9.32 2
03:00 3 J/kg 6.7 K 0 % 0 % 0 % 0 m²/s² 0 0 9.88 2
04:00 10 J/kg 6.4 K 0 % 0 % 0 % 0 m²/s² 0 0 9.82 2
05:00 11 J/kg 6.4 K 0 % 0 % 0 % 0 m²/s² 0 0 10.12 2
06:00 12 J/kg 6.3 K 0 % 0 % 0 % 0 m²/s² 0 0 10.2 2
07:00 21 J/kg 5.9 K 0 % 0 % 0 % 0 m²/s² 0 0 9.8 1
08:00 19 J/kg 6.0 K 0 % 0 % 0 % 0 m²/s² 0 0 10.23 3
09:00 17 J/kg 5.9 K 0 % 0 % 0 % 0 m²/s² 0 0 10.58 2
10:00 15 J/kg 5.9 K 0 % 0 % 0 % 0 m²/s² 0 0 10.58 2
11:00 15 J/kg 5.6 K 0 % 0 % 0 % 0 m²/s² 0 0 9.71 3
12:00 12 J/kg 5.3 K 0 % 0 % 0 % 0 m²/s² 0 0 9.53 3
13:00 8 J/kg 5.2 K 0 % 0 % 0 % 0 m²/s² 0 0 10.24 2
14:00 5 J/kg 5.4 K 0 % 0 % 0 % 0 m²/s² 0 0 10.44 1
15:00 3 J/kg 5.3 K 0 % 0 % 0 % 0 m²/s² 0 0 10.37 2
16:00 1 J/kg 5.4 K 0 % 0 % 0 % 0 m²/s² 0 0 10.23 2
17:00 0 J/kg 5.6 K 0 % 0 % 0 % 0 m²/s² 0 0 10.19 3
18:00 0 J/kg 5.6 K 0 % 0 % 0 % 0 m²/s² 0 0 10.19 3
19:00 0 J/kg 5.7 K 0 % 0 % 0 % 0 m²/s² 0 0 10.41 3
20:00 0 J/kg 5.6 K 0 % 0 % 0 % 0 m²/s² 0 0 10.55 2
21:00 0 J/kg 5.8 K 0 % 0 % 0 % 0 m²/s² 0 0 10.75 3
22:00 0 J/kg 5.8 K 0 % 0 % 0 % 0 m²/s² 0 0 10.6 3
23:00 0 J/kg 6.1 K 0 % 0 % 0 % 0 m²/s² 0 0 10.78 3
 04:53     21:22    Daglengte: 16:29 Dinsdag 18 Jun
00:00 0 J/kg 6.3 K 0 % 0 % 0 % 0 m²/s² 0 0 10.65 3
01:00 0 J/kg 5.7 K 0 % 0 % 0 % 0 m²/s² 0 0 9.33 3
02:00 0 J/kg 3.9 K 0 % 0 % 0 % 0 m²/s² 0 0 6.9 3
03:00 0 J/kg 1.9 K 0 % 0 % 0 % 0 m²/s² 0 0 4.6 2
04:00 0 J/kg 0.5 K 0 % 0 % 0 % 0 m²/s² 0 0 2.36 3
05:00 0 J/kg 0.0 K 0 % 0 % 0 % 0 m²/s² 0 0 1.74 3
06:00 0 J/kg 0.5 K 0 % 0 % 0 % 0 m²/s² 0 0 1.34 2
07:00 0 J/kg 1.2 K 0 % 0 % 0 % 0 m²/s² 0 0 1.59 2
08:00 0 J/kg 0.7 K 0 % 0 % 0 % 0 m²/s² 0 0 1.12 2
09:00 0 J/kg 0.7 K 0 % 0 % 0 % 0 m²/s² 0 0 0.7 3
10:00 0 J/kg -0.1 K 0 % 0 % 0 % 0 m²/s² 0 0 0.68 2
11:00 0 J/kg -0.9 K 0 % 0 % 0 % 0 m²/s² 0 0 -0.15 3
12:00 0 J/kg -0.5 K 0 % 0 % 0 % 0 m²/s² 0 0 -0.26 3
13:00 0 J/kg 1.5 K 0 % 0 % 0 % 0 m²/s² 0 0 1.59 3
14:00 0 J/kg 1.1 K 0 % 0 % 0 % 0 m²/s² 0 0 1.49 1
15:00 28 J/kg 0.7 K 0 % 0 % 0 % 0 m²/s² 0 0 1.27 3
16:00 0 J/kg 1.0 K 0 % 0 % 0 % 0 m²/s² 0 0 1 3
17:00 4 J/kg 0.4 K 0 % 0 % 0 % 0 m²/s² 0 0 0.52 3
18:00 53 J/kg -0.7 K 0 % 0 % 0 % 0 m²/s² 0 0 -0.04 3
19:00 104 J/kg -2.1 K 0 % 0 % 0 % 0 m²/s² 0 0 -0.81 3
20:00 169 J/kg -3.5 K 0 % 0 % 0 % 0 m²/s² 0 0 -2.6 3
21:00 107 J/kg -2.7 K 0 % 0 % 0 % 0 m²/s² 0 0 -2.01 3
22:00 119 J/kg -2.1 K 0 % 0 % 0 % 0 m²/s² 0 0 -0.45 61
23:00 0 J/kg -2.6 K 0 % 0 % 0 % 0 m²/s² 0 0 -0.59 80
 04:53     21:22    Daglengte: 16:29 Woensdag 19 Jun
00:00 0 J/kg -3.5 K 0 % 0 % 0 % 0 m²/s² 0 0 -0.62 80
01:00 0 J/kg -3.6 K 0 % 0 % 0 % 0 m²/s² 0 0 -0.72 61
02:00 0 J/kg -3.8 K 0 % 0 % 0 % 0 m²/s² 0 0 -0.83 95
03:00 0 J/kg -4.2 K 0 % 0 % 0 % 0 m²/s² 0 0 -2.25 81
04:00 0 J/kg -2.7 K 0 % 0 % 0 % 0 m²/s² 0 0 -2.37 61
05:00 0 J/kg -2.2 K 0 % 0 % 0 % 0 m²/s² 0 0 -1.36 80
06:00 1 J/kg -2.0 K 0 % 0 % 0 % 0 m²/s² 0 0 -0.92 80
07:00 2 J/kg -1.3 K 0 % 0 % 0 % 0 m²/s² 0 0 -0.16 3
08:00 3 J/kg 0.3 K 0 % 0 % 0 % 0 m²/s² 0 0 0.63 3
09:00 0 J/kg 2.0 K 0 % 0 % 0 % 0 m²/s² 0 0 3.05 3
10:00 17 J/kg 2.4 K 0 % 0 % 0 % 0 m²/s² 0 0 3.33 3
11:00 60 J/kg 2.4 K 0 % 0 % 0 % 0 m²/s² 0 0 3.18 3
12:00 90 J/kg 2.0 K 0 % 0 % 0 % 0 m²/s² 0 0 2.69 3
13:00 219 J/kg 0.6 K 0 % 0 % 0 % 0 m²/s² 0 0 1.11 3
14:00 210 J/kg 0.7 K 0 % 0 % 0 % 0 m²/s² 0 0 1.39 80
15:00 113 J/kg 2.0 K 0 % 0 % 0 % 0 m²/s² 0 0 3.17 80
16:00 96 J/kg 2.4 K 0 % 0 % 0 % 0 m²/s² 0 0 4.38 80
17:00 86 J/kg 2.5 K 0 % 0 % 0 % 0 m²/s² 0 0 4.81 80
18:00 79 J/kg 2.4 K 0 % 0 % 0 % 0 m²/s² 0 0 5.73 3
19:00 76 J/kg 2.5 K 0 % 0 % 0 % 0 m²/s² 0 0 7.03 3
20:00 27 J/kg 3.1 K 0 % 0 % 0 % 0 m²/s² 0 0 8.38 2
21:00 2 J/kg 3.8 K 0 % 0 % 0 % 0 m²/s² 0 0 9.71 1
22:00 0 J/kg 5.8 K 0 % 0 % 0 % 0 m²/s² 0 0 11.68 0
23:00 0 J/kg 6.7 K 0 % 0 % 0 % 0 m²/s² 0 0 13.12 0
Temp Baro Wind Neerslag
  EWN Forecast EWN WRFDA DWD ICON FMI HIRLAM MET Norway GFS
 04:53     21:22    Daglengte: 16:29 Morgen
01:00 13.7° 1018.3 hPa 4.1 m/s 0.0 mm 11.6° 1018.0 hPa 2.8 m/s 0.0 mm 13.4° 1018.7 hPa 2.8 m/s -2.0 mm 15.0° 1017.3 hPa 4.9 m/s 0.0 mm 13.7° 1018.3 hPa 4.2 m/s 0.0 mm 11.6° 1018.5 hPa 4.1 m/s
04:00 13.0° 1017.8 hPa 3.5 m/s 0.0 mm 12.3° 1017.3 hPa 2.9 m/s 0.1 mm 12.9° 1018.0 hPa 2.6 m/s 0.0 mm 14.6° 1017.2 hPa 4.3 m/s 0.0 mm 12.9° 1017.8 hPa 3.7 m/s 0.0 mm 11.2° 1018.0 hPa 3.9 m/s
07:00 14.2° 1018.1 hPa 4.7 m/s 0.0 mm 14.0° 1017.5 hPa 4.7 m/s 0.4 mm 14.4° 1018.4 hPa 3.3 m/s 0.0 mm 14.9° 1017.6 hPa 5.1 m/s 0.0 mm 14.2° 1018.1 hPa 5.1 m/s 0.0 mm 13.3° 1018.2 hPa 5.3 m/s
10:00 16.0° 1018.2 hPa 5.3 m/s 0.3 mm 15.7° 1017.7 hPa 5.3 m/s 0.5 mm 16.4° 1018.9 hPa 4.7 m/s 0.0 mm 16.3° 1017.8 hPa 5.4 m/s 0.0 mm 16.1° 1018.2 hPa 5.8 m/s 0.4 mm 14.0° 1018.7 hPa 5.9 m/s
13:00 17.1° 1018.0 hPa 5.6 m/s 0.0 mm 16.8° 1017.1 hPa 5.7 m/s 0.5 mm 17.4° 1018.3 hPa 5.1 m/s 0.0 mm 17.5° 1017.5 hPa 5.9 m/s 0.0 mm 16.9° 1018.1 hPa 5.7 m/s 0.3 mm 15.3° 1018.3 hPa 5.8 m/s
16:00 17.4° 1017.4 hPa 5.4 m/s 0.0 mm 16.8° 1016.7 hPa 5.5 m/s 0.5 mm 18.0° 1017.7 hPa 4.9 m/s 0.0 mm 18.3° 1016.7 hPa 6.2 m/s 0.0 mm 17.2° 1017.5 hPa 5.4 m/s 0.0 mm 15.7° 1017.7 hPa 6.0 m/s
19:00 16.0° 1016.8 hPa 4.1 m/s 0.0 mm 15.9° 1016.1 hPa 3.9 m/s 0.5 mm 16.6° 1017.0 hPa 3.5 m/s 0.0 mm 17.0° 1016.5 hPa 6.0 m/s 0.0 mm 15.8° 1016.8 hPa 3.8 m/s 0.0 mm 14.6° 1017.3 hPa 4.5 m/s
22:00 13.1° 1017.0 hPa 2.4 m/s 0.0 mm 13.2° 1016.4 hPa 2.4 m/s 0.5 mm 13.6° 1017.3 hPa 2.0 m/s 0.0 mm 14.7° 1016.8 hPa 2.5 m/s 0.0 mm 12.4° 1017.0 hPa 2.1 m/s 0.0 mm 11.5° 1017.8 hPa 2.8 m/s
 04:53     21:22    Daglengte: 16:29 Dinsdag 18 Jun
01:00 12.0° 1016.7 hPa 1.7 m/s 0.0 mm 12.3° 1016.2 hPa 1.5 m/s 0.5 mm 12.7° 1016.8 hPa 1.0 m/s 0.0 mm 13.2° 1016.5 hPa 1.6 m/s 0.0 mm 10.5° 1016.7 hPa 1.9 m/s 0.0 mm 10.6° 1017.5 hPa 1.9 m/s
04:00 11.8° 1015.8 hPa 0.7 m/s 0.0 mm 11.9° 1014.6 hPa 0.8 m/s 0.5 mm 12.0° 1016.0 hPa 0.6 m/s 0.0 mm 11.2° 1015.8 hPa 0.7 m/s 0.0 mm 11.8° 1016.0 hPa 0.6 m/s 0.0 mm 9.8° 1016.1 hPa 0.4 m/s
07:00 12.5° 1015.4 hPa 1.3 m/s 0.0 mm 12.6° 1013.9 hPa 2.6 m/s 1.9 mm 13.1° 1015.5 hPa 0.9 m/s 0.0 mm 12.8° 1015.9 hPa 1.2 m/s 0.0 mm 12.4° 1015.3 hPa 1.6 m/s 0.0 mm 12.4° 1015.9 hPa 0.8 m/s
10:00 15.5° 1015.1 hPa 1.4 m/s 0.0 mm 14.1° 1013.6 hPa 4.0 m/s 9.5 mm 17.6° 1015.1 hPa 1.5 m/s 0.0 mm 17.7° 1015.7 hPa 2.4 m/s 0.0 mm 15.4° 1015.0 hPa 0.9 m/s 0.0 mm 16.1° 1015.2 hPa 2.1 m/s
13:00 17.1° 1013.8 hPa 2.2 m/s 1.9 mm 15.7° 1012.9 hPa 2.8 m/s 16.7 mm 20.8° 1013.4 hPa 2.4 m/s 0.0 mm 20.3° 1014.9 hPa 3.2 m/s 0.0 mm 16.4° 1013.7 hPa 1.6 m/s 1.1 mm 18.0° 1013.7 hPa 3.7 m/s
16:00 18.8° 1012.3 hPa 2.2 m/s 0.0 mm 19.4° 1010.7 hPa 4.2 m/s 28.3 mm 19.5° 1012.2 hPa 2.2 m/s 0.0 mm 21.2° 1013.4 hPa 3.0 m/s 0.0 mm 18.0° 1012.2 hPa 1.8 m/s 0.0 mm 16.5° 1011.8 hPa 1.5 m/s
19:00 18.7° 1011.0 hPa 1.7 m/s 2.2 mm 20.6° 1008.5 hPa 1.6 m/s 29.6 mm 20.3° 1010.4 hPa 1.8 m/s 0.0 mm 19.6° 1012.4 hPa 1.8 m/s 0.0 mm 17.0° 1011.0 hPa 1.9 m/s 0.0 mm 17.6° 1010.6 hPa 0.6 m/s
22:00 16.2° 1010.1 hPa 2.7 m/s 5.3 mm 17.8° 1007.9 hPa 3.3 m/s 35.3 mm 16.6° 1009.6 hPa 2.1 m/s 0.3 mm 15.7° 1010.4 hPa 2.7 m/s 0.0 mm 14.8° 1009.9 hPa 3.1 m/s
 04:53     21:22    Daglengte: 16:29 Woensdag 19 Jun
01:00 15.5° 1008.3 hPa 1.9 m/s 6.2 mm 17.2° 1004.8 hPa 3.6 m/s 47.0 mm 15.9° 1007.3 hPa 1.6 m/s 3.1 mm 14.7° 1008.7 hPa 1.3 m/s 0.5 mm 14.5° 1007.5 hPa 4.1 m/s
04:00 14.9° 1005.9 hPa 2.3 m/s 7.6 mm 16.2° 1003.1 hPa 3.9 m/s 47.4 mm 15.7° 1005.1 hPa 1.6 m/s 6.6 mm 13.8° 1007.3 hPa 1.6 m/s 0.4 mm 14.7° 1005.0 hPa 4.5 m/s
07:00 14.7° 1005.3 hPa 2.1 m/s 8.8 mm 15.1° 1001.9 hPa 0.6 m/s 47.7 mm 15.5° 1004.6 hPa 1.7 m/s 1.8 mm 13.9° 1007.0 hPa 1.7 m/s 1.1 mm 15.1° 1004.4 hPa 3.7 m/s
10:00 16.2° 1006.2 hPa 3.1 m/s 17.0 mm 16.3° 1004.7 hPa 6.3 m/s 48.1 mm 16.2° 1005.3 hPa 3.8 m/s 0.0 mm 16.2° 1007.2 hPa 1.9 m/s 1.5 mm 16.5° 1005.1 hPa 1.4 m/s
13:00 17.9° 1007.2 hPa 3.4 m/s 5.4 mm 17.7° 1006.2 hPa 4.3 m/s 48.5 mm 17.5° 1006.3 hPa 3.7 m/s 0.2 mm 18.1° 1008.2 hPa 2.9 m/s 0.0 mm 14.6° 1006.6 hPa 6.8 m/s
16:00 16.7° 1008.2 hPa 3.7 m/s 12.7 mm 19.0° 1007.1 hPa 5.1 m/s 50.7 mm 16.1° 1007.6 hPa 3.2 m/s 2.1 mm 16.5° 1008.9 hPa 3.6 m/s 4.3 mm 13.7° 1008.2 hPa 5.0 m/s
19:00 16.2° 1008.9 hPa 3.5 m/s 3.8 mm 18.7° 1007.9 hPa 3.9 m/s 51.2 mm 15.1° 1008.5 hPa 2.5 m/s 0.4 mm 16.1° 1009.3 hPa 3.7 m/s 0.6 mm 16.2° 1009.7 hPa 4.4 m/s
22:00 13.8° 1010.4 hPa 3.2 m/s 0.0 mm 14.8° 1009.6 hPa 3.9 m/s 51.4 mm 14.0° 1010.1 hPa 1.7 m/s 0.0 mm 13.5° 1010.7 hPa 3.4 m/s 12.1° 1011.5 hPa 3.6 m/s
 04:53     21:23    Daglengte: 16:30 Donderdag 20 Jun
01:00 11.1° 1011.6 hPa 2.9 m/s 0.0 mm 10.9° 1010.1 hPa 3.3 m/s 51.4 mm 11.9° 1011.3 hPa 2.1 m/s 0.0 mm 10.9° 1012.1 hPa 3.0 m/s 9.6° 1011.7 hPa 3.3 m/s
04:00 11.0° 1012.8 hPa 3.0 m/s 9.9 mm 11.2° 1012.8 hPa 3.0 m/s 8.7° 1012.3 hPa 2.8 m/s 9.9 mm
07:00 11.3° 1013.2 hPa 3.0 m/s 9.9 mm 11.3° 1013.2 hPa 3.0 m/s 10.8° 1012.7 hPa 3.1 m/s 9.9 mm
10:00 14.0° 1013.9 hPa 4.3 m/s 9.9 mm 14.0° 1013.9 hPa 4.3 m/s 14.7° 1013.7 hPa 4.5 m/s 9.9 mm
13:00 16.6° 1014.6 hPa 5.6 m/s 10.1 mm 16.6° 1014.6 hPa 5.6 m/s 16.5° 1014.1 hPa 6.0 m/s 10.1 mm
16:00 15.7° 1014.8 hPa 4.9 m/s 10.8 mm 15.8° 1014.8 hPa 4.8 m/s 15.1° 1014.2 hPa 6.0 m/s 10.8 mm
19:00 14.9° 1014.9 hPa 4.2 m/s 11.1 mm 14.9° 1015.0 hPa 4.1 m/s 14.5° 1014.3 hPa 5.2 m/s 11.1 mm
22:00 12.6° 1016.1 hPa 2.9 m/s 11.2 mm 12.7° 1016.1 hPa 2.8 m/s 11.5° 1015.1 hPa 3.4 m/s 11.2 mm
 04:53     21:23    Daglengte: 16:30 Vrijdag 21 Jun
01:00 10.4° 1017.1 hPa 1.7 m/s 11.3 mm 10.4° 1017.3 hPa 1.5 m/s 10.4° 1015.3 hPa 3.5 m/s 11.3 mm
04:00 10.4° 1017.8 hPa 1.9 m/s 11.4 mm 10.5° 1018.0 hPa 1.9 m/s 9.5° 1015.6 hPa 3.0 m/s 11.4 mm
07:00 10.6° 1018.6 hPa 2.3 m/s 11.5 mm 10.6° 1018.8 hPa 2.2 m/s 11.2° 1016.1 hPa 3.1 m/s 11.5 mm
10:00 13.7° 1019.0 hPa 3.2 m/s 11.5 mm 13.6° 1019.2 hPa 3.1 m/s 14.7° 1017.1 hPa 3.9 m/s 11.5 mm
13:00 16.7° 1019.4 hPa 4.1 m/s 11.6 mm 16.7° 1019.6 hPa 4.0 m/s 16.6° 1017.3 hPa 4.8 m/s 11.6 mm
16:00 16.6° 1019.4 hPa 3.4 m/s 11.7 mm 16.6° 1019.6 hPa 3.2 m/s 16.4° 1017.5 hPa 5.5 m/s 11.7 mm
19:00 16.4° 1019.4 hPa 2.6 m/s 12.0 mm 16.5° 1019.6 hPa 2.5 m/s 14.8° 1017.8 hPa 3.7 m/s 12.0 mm
22:00 12.7° 1020.2 hPa 2.2 m/s 12.1 mm 12.8° 1020.4 hPa 2.2 m/s 11.3° 1018.8 hPa 2.2 m/s 12.1 mm
 04:53     21:23    Daglengte: 16:30 Zaterdag 22 Jun
01:00 9.2° 1020.9 hPa 2.0 m/s 12.1 mm 9.2° 1021.1 hPa 2.0 m/s 9.4° 1018.8 hPa 1.8 m/s 12.1 mm
04:00 10.0° 1020.7 hPa 1.6 m/s 12.1 mm 10.1° 1021.0 hPa 1.6 m/s 8.6° 1018.3 hPa 1.4 m/s 12.1 mm
07:00 11.0° 1020.6 hPa 1.2 m/s 12.1 mm 11.0° 1020.8 hPa 1.2 m/s 11.1° 1018.5 hPa 1.4 m/s 12.1 mm
10:00 14.6° 1020.4 hPa 2.4 m/s 12.2 mm 14.4° 1020.6 hPa 2.5 m/s 15.9° 1018.0 hPa 1.3 m/s 12.2 mm
13:00 17.9° 1020.2 hPa 3.7 m/s 12.5 mm 17.9° 1020.4 hPa 3.8 m/s 17.4° 1017.8 hPa 2.3 m/s 12.5 mm
16:00 17.2° 1019.4 hPa 3.4 m/s 12.8 mm 17.1° 1019.6 hPa 3.4 m/s 17.4° 1016.3 hPa 3.1 m/s 12.8 mm
19:00 16.4° 1018.6 hPa 2.9 m/s 12.9 mm 16.4° 1018.9 hPa 3.0 m/s 15.9° 1015.6 hPa 1.6 m/s 12.9 mm
22:00 14.1° 1018.5 hPa 3.4 m/s 12.9 mm 14.3° 1018.6 hPa 3.6 m/s 11.4° 1016.3 hPa 1.1 m/s 12.9 mm
 04:54     21:23    Daglengte: 16:29 Zondag 23 Jun
01:00 12.2° 1018.2 hPa 4.0 m/s 12.9 mm 12.3° 1018.4 hPa 4.2 m/s 10.7° 1015.9 hPa 1.6 m/s 12.9 mm
04:00 12.9° 1017.2 hPa 4.2 m/s 12.9 mm 13.1° 1017.4 hPa 4.3 m/s 10.9° 1015.2 hPa 3.0 m/s 12.9 mm
07:00 13.8° 1016.4 hPa 4.5 m/s 13.0 mm 13.9° 1016.4 hPa 4.5 m/s 12.9° 1015.9 hPa 4.0 m/s 13.0 mm
10:00 15.9° 1016.0 hPa 4.9 m/s 13.2 mm 16.0° 1016.0 hPa 5.0 m/s 15.0° 1016.0 hPa 3.4 m/s 13.2 mm
13:00 18.1° 1015.7 hPa 5.4 m/s 13.3 mm 18.1° 1015.7 hPa 5.6 m/s 17.5° 1016.1 hPa 3.0 m/s 13.3 mm
16:00 18.1° 1015.2 hPa 4.7 m/s 14.8 mm 18.0° 1015.2 hPa 4.8 m/s 19.6° 1015.1 hPa 3.4 m/s 14.8 mm
19:00 17.8° 1014.7 hPa 4.0 m/s 15.9 mm 17.8° 1014.7 hPa 4.0 m/s 18.0° 1015.1 hPa 4.1 m/s 15.9 mm
22:00 16.3° 1015.1 hPa 2.6 m/s 16.4 mm 16.4° 1015.0 hPa 2.4 m/s 14.4° 1015.7 hPa 4.3 m/s 16.4 mm
 04:54     21:23    Daglengte: 16:29 Maandag 24 Jun
01:00 15.0° 1015.4 hPa 1.2 m/s 16.5 mm 15.1° 1015.4 hPa 0.8 m/s 13.7° 1014.8 hPa 5.8 m/s 16.5 mm
07:00 14.7° 1015.4 hPa 1.1 m/s 18.6 mm 14.8° 1015.6 hPa 0.5 m/s 13.6° 1012.7 hPa 7.9 m/s 18.6 mm
13:00 20.8° 1015.1 hPa 1.3 m/s 28.1 mm 21.4° 1015.4 hPa 0.6 m/s 14.2° 1011.3 hPa 9.6 m/s 28.1 mm
19:00 19.2° 1014.7 hPa 3.0 m/s 31.1 mm 19.7° 1015.2 hPa 2.3 m/s 13.9° 1009.6 hPa 10.1 m/s 31.1 mm
 04:54     21:23    Daglengte: 16:29 Dinsdag 25 Jun
01:00 14.4° 1016.2 hPa 3.8 m/s 37.0 mm 14.6° 1016.8 hPa 3.2 m/s 12.4° 1009.5 hPa 10.4 m/s 37.0 mm
07:00 13.3° 1018.1 hPa 4.2 m/s 46.0 mm 13.6° 1018.9 hPa 3.6 m/s 10.4° 1009.4 hPa 10.2 m/s 46.0 mm
13:00 14.2° 1020.4 hPa 5.1 m/s 51.4 mm 14.6° 1021.3 hPa 4.6 m/s 9.6° 1010.7 hPa 10.5 m/s 51.4 mm
19:00 15.1° 1021.4 hPa 5.5 m/s 54.2 mm 15.6° 1022.2 hPa 5.2 m/s 9.6° 1012.9 hPa 8.8 m/s 54.2 mm
 04:55     21:23    Daglengte: 16:28 Woensdag 26 Jun
01:00 11.4° 1024.0 hPa 3.8 m/s 54.3 mm 11.6° 1024.8 hPa 3.6 m/s 9.7° 1015.2 hPa 6.0 m/s 54.3 mm
07:00 11.3° 1024.0 hPa 4.4 m/s 54.3 mm 11.5° 1024.7 hPa 4.2 m/s 8.7° 1015.8 hPa 6.9 m/s 54.3 mm
13:00 15.4° 1024.3 hPa 6.2 m/s 54.4 mm 15.6° 1025.0 hPa 6.3 m/s 13.7° 1016.2 hPa 5.4 m/s 54.4 mm
19:00 18.6° 1021.3 hPa 0.4 m/s 0.7 mm
 04:55     21:23    Daglengte: 16:28 Donderdag 27 Jun
01:00 13.6° 1020.8 hPa 0.6 m/s 0.5 mm
07:00 13.7° 1019.3 hPa 1.2 m/s 0.5 mm
13:00 18.8° 1018.5 hPa 1.6 m/s 0.8 mm
19:00 18.4° 1016.8 hPa 1.8 m/s 0.2 mm
 04:56     21:23    Daglengte: 16:27 Vrijdag 28 Jun
01:00 13.1° 1016.6 hPa 1.5 m/s 0.5 mm
07:00 13.7° 1015.7 hPa 1.8 m/s 0.5 mm
13:00 19.1° 1016.0 hPa 2.0 m/s 0.7 mm
19:00 18.6° 1015.5 hPa 2.2 m/s 0.8 mm
 04:56     21:23    Daglengte: 16:27 Zaterdag 29 Jun
01:00 13.3° 1016.2 hPa 1.8 m/s 0.2 mm
07:00 13.5° 1016.0 hPa 1.4 m/s 0.2 mm
13:00 19.1° 1016.2 hPa 2.0 m/s 0.3 mm
19:00 18.4° 1015.5 hPa 2.1 m/s 0.5 mm
 04:57     21:23    Daglengte: 16:26 Zondag 30 Jun
01:00 13.2° 1016.0 hPa 1.6 m/s 0.5 mm
07:00 13.4° 1015.8 hPa 1.6 m/s 0.2 mm
13:00 18.4° 1016.0 hPa 2.4 m/s 0.3 mm
19:00 18.1° 1015.5 hPa 2.2 m/s 0.4 mm
 04:58     21:22    Daglengte: 16:24 Maandag 01 Jul
01:00 13.1° 1015.8 hPa 1.3 m/s 0.4 mm
07:00 13.7° 1015.8 hPa 1.1 m/s 0.1 mm
13:00 18.9° 1016.2 hPa 2.6 m/s 0.3 mm
19:00 18.5° 1015.6 hPa 2.4 m/s 0.3 mm
FMI Hirlam - 7.5 km EWN WRFDA - 12 km DWD ICON - 7 km GFS - 25 km Basiskaart






























































Updatetijd (Europe/Amsterdam) Resolutie Lengte Stap
FMI Hirlam 19:00, 01:00, 07:00, 13:00 7.5 km 49h 1h
EWN WRFDA 22:15, 04:15, 10:15, 16:15 12 km 73h 1h
DWD ICON 23:45, 05:45, 11:45, 17:45 7 km 75h 1h
GFS 20:30, 02:30, 08:30, 14:30 25 km 237h 3h
30+ mm
25-30 mm
20-25 mm
15-20 mm
10-15 mm
6-10 mm
4-6 mm
2-4 mm
1-2 mm
0.5-1 mm
0.2-0.5 mm
0.1-0.2 mm
30+ mm
25-30 mm
20-25 mm
15-20 mm
10-15 mm
6-10 mm
4-6 mm
2-4 mm
1-2 mm
0.5-1 mm
0.2-0.5 mm
0.1-0.2 mm
Sneeuwval
Natte sneeuw
Hagel
Vorst
30+ mm
25-30 mm
20-25 mm
15-20 mm
10-15 mm
6-10 mm
4-6 mm
2-4 mm
1-2 mm
0.5-1 mm
0.2-0.5 mm
0.1-0.2 mm
Sneeuwval
Natte sneeuw
Hagel
Vorst
Onweer
50 mm
40 mm
30 mm
26 mm
22 mm
18 mm
14 mm
10 mm
9 mm
8 mm
7 mm
6 mm
5 mm
4.5 mm
4 mm
3.5 mm
3 mm
2.5 mm
2 mm
1.5 mm
1 mm
0.8 mm
0.6 mm
0.4 mm
0.2 mm
0.05 mm
35°
30°
25°
20°
15°
10°
-5°
-10°
-15°
-20°
-25°
-30°
-35°
120> km/h
105 km/h
90 km/h
75 km/h
60 km/h
50 km/h
40 km/h
30 km/h
20 km/h
10 km/h
0 km/h
2600 J/kg
2400 J/kg
2200 J/kg
2000 J/kg
1800 J/kg
1600 J/kg
1400 J/kg
1200 J/kg
1000 J/kg
800 J/kg
600 J/kg
400 J/kg
200 J/kg
70 dBZ
65 dBZ
60 dBZ
55 dBZ
50 dBZ
45 dBZ
40 dBZ
35 dBZ
30 dBZ
25 dBZ
20 dBZ
15 dBZ
10 dBZ
5 dBZ
-1 K
-2 K
-3 K
-4 K
-5 K
-6 K
-7 K
-8 K
-9 K
950 m²/s²
900 m²/s²
850 m²/s²
800 m²/s²
750 m²/s²
700 m²/s²
650 m²/s²
600 m²/s²
550 m²/s²
500 m²/s²
450 m²/s²
400 m²/s²
350 m²/s²
300 m²/s²
250 m²/s²
200 m²/s²
150 m²/s²
100 m²/s²
46 m/s
44 m/s
42 m/s
40 m/s
38 m/s
36 m/s
34 m/s
32 m/s
30 m/s
28 m/s
26 m/s
24 m/s
22 m/s
20 m/s
16 m/s
12 m/s
8 m/s
4 m/s
30 m/s
28 m/s
26 m/s
24 m/s
22 m/s
20 m/s
18 m/s
16 m/s
14 m/s
12 m/s
10 m/s
8 m/s
6 m/s
4 m/s
2 m/s
3.0
2.8
2.6
2.4
2.2
2.0
1.8
1.6
1.4
1.2
1.0
0.8
0.6
0.4
0.2
15
14
13
12
11
10
9
8
7
6
5
4
3
2
1
90%
80%
70%
60%
50%
40%
30%
20%
10%
42
40
38
36
34
32
30
28
26
24
22
20
18
16
14
12
90+ cm
80-90 cm
70-80 cm
60-70 cm
50-60 cm
40-50 cm
30-40 cm
20-30 cm
10-20 cm
1-10 cm
Sneeuwval
Natte sneeuw
Regen
>120 mm
115 mm
110 mm
105 mm
100 mm
95 mm
90 mm
85 mm
80 mm
75 mm
70 mm
65 mm
60 mm
55 mm
50 mm
45 mm
45 mm
40 mm
35 mm
30 mm
25 mm
20 mm
15 mm
10 mm
5 mm
0.1 mm
960 hPa
880 hPa
800 hPa
720 hPa
640 hPa
560 hPa
584 gpdm
568 gpdm
552 gpdm
536 gpdm
520 gpdm
504 gpdm
488 gpdm
Extreem zwaar Noodweer Kans op onweer
15% 15% 5% 50% 15%

Dag




Kaart






35°
30°
25°
20°
15°
10°
-5°
-10°
-15°
-20°
-25°
-30°
-35°
120> km/h